| time (UTC) | temp F | wind direction | speed MPH | gust MPH | rain 1hr in | rain 24hr in | rain mn in | humidity % | barometer mb |
| 20260510170127 | 65 | 0.0 | 0.0 | 0.00 | 0.00 | 0.00 | 10 | 1013.9 | |
| 20260510165127 | 67 | 0.0 | 0.0 | 0.00 | 0.00 | 0.00 | 10 | 1013.8 | |
| 20260510164127 | 64 | 0.0 | 0.0 | 0.00 | 0.00 | 0.00 | 10 | 1013.9 | |
| 20260510163127 | 61 | 0.0 | 0.0 | 0.00 | 0.00 | 0.00 | 10 | 1014.2 | |
| 20260510162127 | 60 | 0.0 | 0.0 | 0.00 | 0.00 | 0.00 | 10 | 1014.5 | |
| 20260510161127 | 61 | 0.0 | 0.0 | 0.00 | 0.00 | 0.00 | 10 | 1014.2 | |
| 20260510160127 | 63 | 0.0 | 0.0 | 0.00 | 0.00 | 0.00 | 10 | 1013.5 | |
| 20260510155127 | 70 | 0.0 | 0.0 | 0.00 | 0.00 | 0.00 | 98 | 1011.7 | |
| 20260510154127 | 72 | 0.0 | 0.0 | 0.00 | 0.00 | 0.00 | 86 | 1011.5 | |
| 20260510153127 | 72 | 0.0 | 0.0 | 0.00 | 0.00 | 0.00 | 10 | 1011.5 | |
| 20260510152127 | 73 | 0.0 | 0.0 | 0.00 | 0.00 | 0.00 | 10 | 1011.3 | |
| 20260510151127 | 73 | 0.0 | 0.0 | 0.00 | 0.00 | 0.00 | 10 | 1011.6 | |
| 20260510150127 | 69 | 0.0 | 0.0 | 0.00 | 0.00 | 0.00 | 10 | 1012.1 | |
| 20260510145127 | 65 | 0.0 | 0.0 | 0.00 | 0.00 | 0.00 | 10 | 1012.4 | |
| 20260510144127 | 67 | 0.0 | 0.0 | 0.00 | 0.00 | 0.00 | 10 | 1012.5 | |
| 20260510143127 | 66 | 0.0 | 0.0 | 0.00 | 0.00 | 0.00 | 10 | 1012.7 | |
| 20260510142127 | 62 | 0.0 | 0.0 | 0.00 | 0.00 | 0.00 | 10 | 1013.6 | |
| 20260510141127 | 62 | 0.0 | 0.0 | 0.00 | 0.00 | 0.00 | 10 | 1013.7 | |
| 20260510140127 | 62 | 0.0 | 0.0 | 0.00 | 0.00 | 0.00 | 10 | 1013.8 | |
| 20260510135127 | 63 | 0.0 | 0.0 | 0.00 | 0.00 | 0.00 | 10 | 1013.4 | |
| 20260510134127 | 64 | 0.0 | 0.0 | 0.00 | 0.00 | 0.00 | 10 | 1013.3 | |
| 20260510133127 | 64 | 0.0 | 0.0 | 0.00 | 0.00 | 0.00 | 10 | 1013.4 | |
| 20260510132127 | 65 | 0.0 | 0.0 | 0.00 | 0.00 | 0.00 | 10 | 1013.2 | |
| 20260510131127 | 64 | 0.0 | 0.0 | 0.00 | 0.00 | 0.00 | 10 | 1013.2 | |
| 20260510130127 | 65 | 0.0 | 0.0 | 0.00 | 0.00 | 0.00 | 10 | 1013.2 | |
| 20260510125127 | 64 | 0.0 | 0.0 | 0.00 | 0.00 | 0.00 | 10 | 1013.5 | |
| 20260510124127 | 65 | 0.0 | 0.0 | 0.00 | 0.00 | 0.00 | 10 | 1013.6 | |
| 20260510123127 | 64 | 0.0 | 0.0 | 0.00 | 0.00 | 0.00 | 10 | 1013.8 | |
| 20260510122127 | 65 | 0.0 | 0.0 | 0.00 | 0.00 | 0.00 | 10 | 1013.8 | |
| 20260510121127 | 64 | 0.0 | 0.0 | 0.00 | 0.00 | 0.00 | 10 | 1013.9 | |
| 20260510120127 | 65 | 0.0 | 0.0 | 0.00 | 0.00 | 0.00 | 10 | 1013.7 | |
| 20260510115127 | 67 | 0.0 | 0.0 | 0.00 | 0.00 | 0.00 | 10 | 1013.3 | |
| 20260510114127 | 69 | 0.0 | 0.0 | 0.00 | 0.00 | 0.00 | 69 | 1012.8 | |
| 20260510113127 | 69 | 0.0 | 0.0 | 0.00 | 0.00 | 0.00 | 69 | 1012.6 | |
| 20260510112127 | 70 | 0.0 | 0.0 | 0.00 | 0.00 | 0.00 | 62 | 1012.4 | |
| 20260510110337 | 68 | 0.0 | 0.0 | 0.00 | 0.00 | 0.00 | 63 | 1012.8 | |
| 20260510105337 | 70 | 0.0 | 0.0 | 0.00 | 0.00 | 0.00 | 61 | 1012.8 |